Middletown, OH

9:31 AM EDT on June 22, 2017 (GMT -0400)
Hook Field Municipal

Weather History for KMWO - February, 2013

Change the Weather History Date:

Saturday, February 9, 2013

  Actual Average (KFFO) Record (KFFO)
Temperature  
Mean Temperature 30 °F -  
Max Temperature 39 °F 39 °F 68 °F (2001)
Min Temperature 20 °F 22 °F 3 °F (2007)
Degree Days  
Heating Degree Days 36    
Moisture  
Dew Point 23 °F    
Average Humidity 78    
Maximum Humidity 100    
Minimum Humidity 46    
Precipitation  
Precipitation 0.00 in - - ()
Sea Level Pressure  
Sea Level Pressure 30.37 in    
Wind  
Wind Speed 3 mph (ENE)    
Max Wind Speed 7 mph    
Max Gust Speed -    
Visibility 10 miles    
Events      
Averages and records for this station are not official NWS values.
T = Trace of Precipitation, MM = Missing Value Source: NWS Daily Summary

Daily Weather History Graph

Daily Weather History Graph

Search for Another Location

Airport or City:

Trip Planner

Search our weather history database for the weather conditions in past years. The results will help you decide how hot, cold, wet, or windy it might be!

Date:

Astronomy

Feb. 09, 2013 Rise Set
Actual Time 7:36 AM EST 6:07 PM EST
Civil Twilight 7:08 AM EST 6:35 PM EST
Nautical Twilight 6:37 AM EST 7:07 PM EST
Astronomical Twilight 6:05 AM EST 7:38 PM EST
Moon 6:47 AM EST (2/9) 5:49 PM EST (2/9)
Length of Visible Light 11h 26m
Length of Day
10h 30m
Waning Crescent, 0% of the Moon is Illuminated
Feb 9
Waning Crescent
Feb 10
New
Feb 17
First Quarter
Feb 25
Full
Mar 4
Last Quarter

Hourly Weather History & Observations

Time (EST) Temp. Windchill Dew Point Humidity Pressure Visibility Wind Dir Wind Speed Gust Speed Precip Events Conditions
12:15 AM 32.5 °F 26.2 °F 27.3 °F 81% 30.35 in 10.0 mi North 6.9 mph - N/A   Mostly Cloudy
12:35 AM 30.2 °F 23.4 °F 23.4 °F 76% 30.36 in 10.0 mi NNE 6.9 mph - N/A   Scattered Clouds
12:55 AM 28.9 °F 22.8 °F 22.6 °F 77% 30.37 in 10.0 mi NNE 5.8 mph - N/A   Clear
1:15 AM 27.9 °F 22.6 °F 21.7 °F 78% 30.37 in 10.0 mi North 4.6 mph - N/A   Clear
1:35 AM 27.9 °F 24.0 °F 21.9 °F 78% 30.37 in 10.0 mi North 3.5 mph - N/A   Clear
1:55 AM 27.9 °F 22.6 °F 22.1 °F 79% 30.37 in 10.0 mi North 4.6 mph - N/A   Clear
2:15 AM 27.9 °F 24.0 °F 22.6 °F 81% 30.37 in 10.0 mi NNE 3.5 mph - N/A   Clear
2:35 AM 27.9 °F - 22.6 °F 81% 30.38 in 10.0 mi Calm Calm - N/A   Clear
2:55 AM 27.9 °F - 24.3 °F 86% 30.39 in 10.0 mi Calm Calm - N/A   Clear
3:15 AM 27.9 °F - 23.9 °F 85% 30.39 in 10.0 mi Calm Calm - N/A   Clear
3:35 AM 25.3 °F - 23.0 °F 91% 30.40 in 10.0 mi Calm Calm - N/A   Clear
3:55 AM 24.4 °F - 22.6 °F 93% 30.39 in 10.0 mi Calm Calm - N/A   Clear
4:15 AM 22.8 °F - 21.9 °F 96% 30.40 in 10.0 mi Calm Calm - N/A   Clear
4:35 AM 22.8 °F - 22.1 °F 97% 30.38 in 10.0 mi Calm Calm - N/A   Clear
4:55 AM 22.8 °F - 22.1 °F 97% 30.38 in 10.0 mi Calm Calm - N/A   Clear
5:15 AM 21.9 °F - 21.4 °F 98% 30.39 in 10.0 mi Calm Calm - N/A   Clear
5:35 AM 21.4 °F - 21.0 °F 99% 30.39 in 10.0 mi Calm Calm - N/A   Clear
5:55 AM 20.7 °F 15.8 °F 20.5 °F 99% 30.40 in 10.0 mi North 3.5 mph - N/A   Clear
6:15 AM 20.3 °F - 20.1 °F 99% 30.40 in 10.0 mi Calm Calm - N/A   Clear
6:35 AM 20.3 °F - 20.1 °F 99% 30.41 in 10.0 mi Calm Calm - N/A   Clear
6:55 AM 20.3 °F - 20.3 °F 100% 30.42 in 10.0 mi Calm Calm - N/A   Clear
7:15 AM 20.3 °F - 20.3 °F 100% 30.42 in 10.0 mi Calm Calm - N/A   Clear
7:35 AM 20.3 °F 15.4 °F 20.3 °F 100% 30.43 in 10.0 mi North 3.5 mph - N/A   Clear
7:55 AM 20.3 °F - 20.3 °F 100% 30.44 in 10.0 mi Calm Calm - N/A   Clear
8:15 AM 20.7 °F - 20.5 °F 99% 30.45 in 10.0 mi Calm Calm - N/A   Clear
8:35 AM 23.0 °F 18.4 °F 22.8 °F 99% 30.44 in 7.0 mi East 3.5 mph - N/A   Clear
8:55 AM 25.3 °F - 24.6 °F 97% 30.45 in 10.0 mi Calm Calm - N/A   Clear
9:15 AM 27.9 °F 24.0 °F 25.5 °F 91% 30.44 in 10.0 mi ENE 3.5 mph - N/A   Clear
9:35 AM 27.9 °F 24.0 °F 24.6 °F 88% 30.44 in 10.0 mi East 3.5 mph - N/A   Clear
9:55 AM 28.2 °F 23.1 °F 22.1 °F 78% 30.44 in 10.0 mi East 4.6 mph - N/A   Clear
10:15 AM 30.2 °F - 22.5 °F 73% 30.45 in 10.0 mi Calm Calm - N/A   Clear
10:35 AM 29.8 °F - 22.5 °F 74% 30.44 in 10.0 mi Calm Calm - N/A   Clear
10:55 AM 32.5 °F 29.3 °F 23.9 °F 70% 30.43 in 10.0 mi ENE 3.5 mph - N/A   Clear
11:15 AM 32.5 °F 29.3 °F 23.4 °F 69% 30.43 in 10.0 mi NE 3.5 mph - N/A   Clear
11:35 AM 32.5 °F - 23.4 °F 69% 30.43 in 10.0 mi Calm Calm - N/A   Clear
11:55 AM 32.5 °F 27.1 °F 22.3 °F 66% 30.43 in 10.0 mi NNE 5.8 mph - N/A   Clear
12:15 PM 33.4 °F 28.1 °F 22.6 °F 65% 30.42 in 10.0 mi ENE 5.8 mph - N/A   Clear
12:35 PM 35.1 °F - 23.4 °F 62% 30.41 in 10.0 mi Calm Calm - N/A   Clear
12:55 PM 35.1 °F - 22.6 °F 61% 30.40 in 10.0 mi Calm Calm - N/A   Clear
1:15 PM 37.6 °F 34.0 °F 23.4 °F 57% 30.40 in 10.0 mi SE 4.6 mph - N/A   Clear
1:35 PM 36.1 °F 32.3 °F 22.8 °F 58% 30.39 in 10.0 mi East 4.6 mph - N/A   Clear
1:55 PM 37.6 °F 34.0 °F 21.4 °F 52% 30.38 in 10.0 mi ESE 4.6 mph - N/A   Clear
2:15 PM 37.6 °F - 21.0 °F 51% 30.37 in 10.0 mi Calm Calm - N/A   Clear
2:35 PM 37.6 °F - 20.5 °F 50% 30.36 in 10.0 mi Calm Calm - N/A   Clear
2:55 PM 38.1 °F 32.9 °F 22.1 °F 53% 30.36 in 10.0 mi SSE 6.9 mph - N/A   Clear
3:15 PM 39.4 °F 36.1 °F 21.7 °F 49% 30.34 in 10.0 mi East 4.6 mph - N/A   Clear
3:55 PM 38.8 °F 36.5 °F 19.8 °F 46% 30.34 in 10.0 mi SE 3.5 mph - N/A   Clear
4:15 PM 39.6 °F 35.4 °F 21.9 °F 49% 30.34 in 10.0 mi East 5.8 mph - N/A   Clear
4:35 PM 39.4 °F 37.2 °F 22.5 °F 51% 30.33 in 10.0 mi East 3.5 mph - N/A   Clear
4:55 PM 39.2 °F 35.0 °F 21.9 °F 50% 30.33 in 10.0 mi East 5.8 mph - N/A   Clear
5:15 PM 37.6 °F 33.1 °F 23.4 °F 57% 30.32 in 10.0 mi ESE 5.8 mph - N/A   Clear
5:35 PM 37.6 °F 33.1 °F 23.0 °F 56% 30.32 in 10.0 mi ESE 5.8 mph - N/A   Clear
5:55 PM 37.6 °F 34.0 °F 22.1 °F 54% 30.32 in 10.0 mi ESE 4.6 mph - N/A   Clear
6:15 PM 36.0 °F 31.1 °F 21.2 °F 55% 30.32 in 10.0 mi SE 5.8 mph - N/A   Clear
6:35 PM 35.1 °F 32.2 °F 21.6 °F 58% 30.32 in 10.0 mi ESE 3.5 mph - N/A   Clear
6:55 PM 35.1 °F 31.0 °F 22.8 °F 61% 30.32 in 10.0 mi ESE 4.6 mph - N/A   Clear
7:15 PM 33.4 °F - 23.0 °F 66% 30.32 in 10.0 mi Calm Calm - N/A   Clear
7:35 PM 34.5 °F - 25.0 °F 68% 30.31 in 10.0 mi Calm Calm - N/A   Clear
7:55 PM 32.0 °F - 26.2 °F 79% 30.31 in 10.0 mi Calm Calm - N/A   Clear
8:35 PM 29.1 °F - 26.2 °F 89% 30.31 in 10.0 mi Calm Calm - N/A   Clear
8:55 PM 28.2 °F - 24.8 °F 87% 30.29 in 10.0 mi Calm Calm - N/A   Clear
9:15 PM 29.1 °F 23.0 °F 25.5 °F 86% 30.29 in 10.0 mi ENE 5.8 mph - N/A   Clear
9:35 PM 29.1 °F 25.4 °F 25.5 °F 86% 30.29 in 10.0 mi ENE 3.5 mph - N/A   Clear
9:55 PM 30.2 °F 26.7 °F 26.6 °F 86% 30.29 in 10.0 mi NNE 3.5 mph - N/A   Clear
10:15 PM 27.9 °F 22.6 °F 26.4 °F 94% 30.28 in 10.0 mi NNE 4.6 mph - N/A   Clear
10:35 PM 27.9 °F 21.5 °F 25.9 °F 92% 30.28 in 10.0 mi NNE 5.8 mph - N/A   Clear
10:55 PM 27.9 °F 24.0 °F 26.2 °F 94% 30.28 in 10.0 mi North 3.5 mph - N/A   Clear
11:15 PM 27.9 °F - 26.6 °F 95% 30.27 in 10.0 mi Calm Calm - N/A   Clear
11:35 PM 27.9 °F - 26.8 °F 96% 30.26 in 10.0 mi Calm Calm - N/A   Clear
11:55 PM 27.9 °F - 27.0 °F 96% 30.26 in 10.0 mi Calm Calm - N/A   Clear